Flag for U.S.A. Weather past 2 weeks in Barrow, Alaska, U.S.A.

Now
35 °F

Broken clouds.


Feels Like: 26 °F
Forecast: 35 / 39 °F
Wind: 15 mph from West

Location: Post Rogers Memorial Airport

Current Time: Aug 29, 2014 at 7:16:08 PM

Latest Report: Aug 29, 2014 at 6:53 PM


Visibility: 10 mi

Pressure: 29.51 "Hg

Humidity: 70%

Dew point: 26 °F

Location of BarrowLocation

Historic Weather in Barrow — Graph

°F

Barrow temperature yesterday

Maximum temperature yesterday: 45 °F (at 12:53 AM)
Minimum temperature yesterday: 34 °F (at 8:53 AM)
Average temperature yesterday: 37 °F

Past Weeks' High & Low Weather Summary

 TemperatureHumidityPressure
High56 °F (Aug 22, 1:53 PM)100% (Aug 14, 7:53 PM)30.14 "Hg (Aug 14, 7:53 PM)
Low28 °F (Aug 29, 5:53 AM)64% (Aug 22, 3:53 PM)29.40 "Hg (Aug 28, 3:03 AM)
Average40 °F93%29.83 "Hg
* Reported Aug 14 5:53 PM — Aug 29 5:53 PM, Barrow, Weather by CustomWeather, © 2014

Note: Actual official high and low records may vary slightly from our data, if they occured in-between our weather recording intervals... More about our weather records

Advertising

Barrow weather history for previous 24 hours

 ConditionsComfort  
Time TempWeatherWind HumidityBarometerVisibility
5:53 PM
Aug 29
36 °FScattered clouds.17 mph70%29.50 "Hg10 mi
4:53 PM37 °FBroken clouds.17 mph70%29.49 "Hg10 mi
3:53 PM36 °FScattered clouds.16 mph100%29.49 "Hg10 mi
2:53 PM37 °FBroken clouds.21 mph96%29.47 "Hg10 mi
1:53 PM35 °FLight snow. Partly sunny.18 mph96%29.45 "Hg6 mi
12:53 PM37 °FBroken clouds.14 mph86%29.44 "Hg10 mi
10:53 AM36 °FMostly cloudy.12 mph92%29.46 "Hg10 mi
9:57 AM34 °FLight snow. Mostly cloudy.9 mph100%29.47 "Hg9 mi
8:53 AM33 °FMostly cloudy.10 mph92%29.48 "Hg8 mi
7:53 AM32 °FBroken clouds.8 mph92%29.49 "Hg10 mi
6:53 AM31 °FPassing clouds.8 mph89%29.51 "Hg10 mi
5:53 AM28 °FPartly cloudy.6 mph93%29.52 "Hg10 mi
4:53 AM30 °FOvercast.5 mph89%29.52 "Hg10 mi
3:53 AM30 °FOvercast.5 mph89%29.53 "Hg10 mi
2:53 AM32 °FPassing clouds.No wind82%29.54 "Hg10 mi
1:53 AM32 °FPassing clouds.5 mph82%29.54 "Hg10 mi
12:53 AM33 °FPartly cloudy.5 mph82%29.54 "Hg10 mi
11:53 PM
Aug 28
34 °FOvercast.6 mph79%29.55 "Hg10 mi
11:04 PM34 °FOvercast.8 mph85%29.55 "Hg10 mi
10:53 PM34 °FOvercast.8 mph85%29.55 "Hg10 mi
9:53 PM35 °FOvercast.8 mph85%29.56 "Hg10 mi
8:53 PM35 °FOvercast.5 mph88%29.56 "Hg10 mi
7:53 PM36 °FCloudy.6 mph85%29.56 "Hg10 mi
Weather by CustomWeather, © 2014

See weather overviewHow to use our weather pages